Regional Weather Roundup
Issued by NWS Sterling, VA

Home | Current Version | Previous Version | Graphics & Text | Print | Product List | Glossary On
Versions: 1 2 3 4 5 6 7 8 9 10 11 12 13 14 15 16 17 18 19 20 21 22 23 24 25 26 27 28 29 30 31 32 33 34 35 36 37 38 39 40 41 42 43 44 45 46 47 48 49 50
000
ASUS41 KLWX 191710
RWRLWX

REGIONAL WEATHER ROUNDUP
NATIONAL WEATHER SERVICE BALTIMORE MD/WASHINGTON DC
100 PM EDT SUN OCT 19 2014

Note: "FAIR" indicates few or no clouds below 12,000 feet
with no significant weather and/or obstructions to visibility.
 TC=TEMPERATURE CELSIUS

 * =Non NWS site. Station does not report precipitation (e.g. rain,
    snow, etc.), thunder, or fog.

DCZ001-MDZ009-015-VAZ040>042-051-053>054-191800-
WASHINGTON METRO

CITY           SKY/WX    TMP DP  RH WIND       PRES   REMARKS
WASHINGTON NAT MOSUNNY   58  30  34 NW20G29   30.08S
DULLES         MOSUNNY   54  30  40 NW20      30.08S
ANDREWS AFB    SUNNY     55  30  38 NW16      30.05F
FT BELVOIR     SUNNY     56  31  38 NW18      30.07F
QUANTICO       SUNNY     58  32  37 NW15      30.09F
COLLEGE PARK*  SUNNY     55  30  38 NW13G22   30.06S
LEESBURG*      SUNNY     55  36  47 NW17G24   30.08F
MANASSAS*      SUNNY     55  34  44 NW10G22   30.09S
GAITHERSBURG*  SUNNY     52  30  43 NW12G24   30.09F

$$

MDZ006>007-011-014-191800-
BALTIMORE METRO

CITY           SKY/WX    TMP DP  RH WIND       PRES   REMARKS
BWI AIRPORT    MOSUNNY   55  30  38 W16G26    30.04S
MD SCIENCE CTR   N/A     53  28  38 MISG      30.05F
MARTIN STATE   SUNNY     55  34  44 NW18G24   30.05S
ANNAPOLIS      SUNNY     55  32  41 NW18G25   30.03S
FORT MEADE*    SUNNY     55  32  41 NW16      30.07S

$$

MDZ012-015-019>023-191800-
MARYLAND EASTERN SHORE

CITY           SKY/WX    TMP DP  RH WIND       PRES   REMARKS
OCEAN CITY     CLOUDY    54  37  52 NW14G26   29.99R
SALISBURY      CLOUDY    56  37  49 NW16G23   30.00S
BAY BRIDGE AP*   N/A     54  32  43 NW14G21   30.03F
CAMBRIDGE*     MOSUNNY   55  34  44 NW14G23   30.02F
EASTON*        MOSUNNY   55  36  47 NW16G22   30.06S

$$

MDZ017>025-191800-
SOUTHERN MARYLAND

CITY           SKY/WX    TMP DP  RH WIND       PRES   REMARKS
PATUXENT RIVER MOSUNNY   57  33  40 NW18G24   30.04F
ST INIGOES       N/A     56  29  35 NW16G23   30.04F
LEONARDTOWN*   SUNNY     54  30  40 W16G22    30.06S

$$

MDZ003>005-191800-
NORTH CENTRAL MARYLAND

CITY           SKY/WX    TMP DP  RH WIND       PRES   REMARKS
FREDERICK*     SUNNY     59  27  29 NW18      30.10F
HAGERSTOWN APT SUNNY     52  28  39 NW15G23   30.07F
WESTMINSTER*   SUNNY     52  28  40 NW13G18   30.04F

$$

MDZ501>502-191800-
WESTERN MARYLAND

CITY           SKY/WX    TMP DP  RH WIND       PRES   REMARKS
OAKLAND*       PTSUNNY   39  32  75 NW7G17    30.11R
CUMBERLAND*    PTSUNNY   52  32  46 W7G20     30.15F

$$

VAZ025>031-191800-
SHENANDOAH VALLEY

CITY           SKY/WX    TMP DP  RH WIND       PRES   REMARKS
WINCHESTER*    SUNNY     55  27  33 NW14G25   30.09S
FRONT ROYAL*   FAIR      54  32  43 NW7       30.08F
LURAY*         FAIR      57  32  38 W8        30.09F
NEW MARKET*    FAIR      53  29  40 NW3       30.10F
STAUNTON*      SUNNY     57  30  36 W9G16     30.11F
WAYNESBORO*    FAIR      55  30  38 NW10G21   30.09F

$$

WVZ021-048>050-054>055-191800-
EASTERN WEST VIRGINIA PANHANDLE

CITY           SKY/WX    TMP DP  RH WIND       PRES   REMARKS
MARTINSBURG    SUNNY     54  29  38 N14G22    30.08F
PETERSBURG*    SUNNY    N/A N/A N/A W10       30.12F

$$

VAZ036>039-050-191800-
CENTRAL FOOTHILLS

CITY           SKY/WX    TMP DP  RH WIND       PRES   REMARKS
CHARLOTTESVILL SUNNY     58  31  35 NE7       30.10F
CULPEPER*      SUNNY     59  32  36 N7G17     30.09F
ORANGE*        SUNNY     59  28  31 W14G20    30.11S
GORDONSVILLE*  FAIR      57  29  33 NW9G17    30.08F
WARRENTON*     FAIR      60  41  49 NW9G18    30.08F

$$

VAZ055>057-191800-
NORTH AND CENTRAL PIEDMONT

CITY           SKY/WX    TMP DP  RH WIND       PRES   REMARKS
FREDERICKSBRG* SUNNY     59  33  37 N10G18    30.08F
STAFFORD*      SUNNY     57  32  39 NW13G18   30.12F

$$

NCZ024-NYZ072-PAZ021-071-VAZ022-071-191800-
OTHER REGIONAL OBSERVATIONS

CITY           SKY/WX    TMP DP  RH WIND       PRES   REMARKS
NEW YORK CITY  PTSUNNY   53  31  42 NW10G23   29.92S
PHILADELPHIA   MOSUNNY   54  30  40 N25G31    29.98S
PITTSBURGH     MOSUNNY   50  32  50 NW10      30.15F
ROANOKE        SUNNY     57  34  41 W17G25    30.15F
RICHMOND       SUNNY     62  31  31 NW17      30.07F
RALEIGH        MOSUNNY   61  40  45 NW9       30.11F

$$

ANZ530>537-191800-
MARINE OBSERVATIONS

STATION/POSITION TIME  TEMP    WIND        PRES
                       AIR SEA DIR/SP/G
                 (UTC) (F)     (DEG/KT/KT) (MB)
THOMAS PT LIGHT  1700   53 64  320/ 18/ 19 1017.8F
BALT KEY BRIDGE  1700   52     300/ 18/ 23 1016.8S
COVE POINT       1700   52     340/ 19/ 26 1017.2S
LEWISETTA        1700   54 64  330/ 18/ 26 1017.4S
SOLOMONS ISLAND  1700      66                N/A
PINEY POINT      1700          330/ 25/ 28   N/A

$$




USA.gov is the U.S. government's official web portal to all federal, state and local government web resources and services.